Theta_e
327 328 327 326 325 322 321 322 324 326 328 327 324 324 324 324 325 324 321 321 323 325 326 327 326 327 327 327 326 326 326 326 326 326 326 326 326 327 325 326 326 320 315 313 313 314 312 313 314 315 315 314 314 314 318 318 319 319 324 326 323 324 323 324 323 321 320 319 319 318 319 319 318 318 317 318 318 319 317 318 319 319 320 319 328 334 327 324
326 327 327 326 325 323 321 321 321 324 327 327 326 324 325 324 324 325 324 323 323 325 326 326 327 327 327 327 326 326 326 326 326 326 325 325 326 326 325 326 325 320 318 315 313 313 312 313 314 315 315 315 316 316 318 318 318 320 324 324 323 324 323 322 321 319 319 319 318 318 319 319 318 317 317 318 317 318 317 318 318 318 321 318 322 327 323 323
326 326 326 326 325 323 321 321 320 321 323 325 327 325 325 324 324 325 325 325 325 326 326 326 327 327 327 327 326 326 326 325 325 326 325 325 325 325 324 325 324 318 317 315 313 312 311 313 314 314 315 315 316 317 319 319 318 318 321 323 323 323 321 320 319 319 319 318 319 318 319 319 318 318 317 317 317 317 316 317 318 319 320 317 318 319 318 320
327 326 326 326 325 324 322 321 319 319 320 322 326 326 325 324 324 325 325 325 325 325 326 326 326 326 327 325 326 326 324 324 324 325 325 324 324 324 323 324 325 320 315 315 314 312 310 312 314 314 314 315 316 317 318 319 319 318 320 323 322 321 320 319 318 318 319 318 319 318 319 319 318 318 317 317 317 317 317 317 317 318 319 316 316 316 316 317
326 326 327 326 325 324 323 322 320 319 319 319 322 324 326 325 324 325 325 325 325 325 325 325 326 326 326 325 325 324 323 325 325 325 325 325 324 323 322 323 324 322 317 314 315 313 311 311 314 314 314 314 316 317 318 319 319 318 320 320 319 320 319 318 317 318 319 318 319 318 318 319 317 318 317 316 317 317 316 318 318 317 318 316 315 315 315 316
324 326 326 326 325 325 323 323 322 320 319 319 319 320 323 326 325 324 324 325 325 325 325 325 325 325 326 325 325 323 324 326 321 321 325 325 324 324 323 323 323 322 318 315 316 314 311 311 313 314 313 314 316 317 317 317 319 319 319 319 318 318 317 317 316 317 318 318 319 318 318 318 317 317 317 317 317 317 317 318 318 318 319 317 316 314 315 316
321 326 326 325 326 325 323 323 322 320 319 318 318 318 320 324 326 325 324 325 324 325 324 325 325 325 325 325 325 323 324 326 319 317 323 326 325 325 324 323 323 322 318 316 317 315 312 311 313 313 313 314 315 316 317 317 318 318 318 318 317 317 316 316 316 316 317 318 318 318 318 317 317 317 317 317 317 317 316 316 317 319 321 319 316 315 314 315
316 324 326 324 325 325 323 323 322 320 319 318 318 318 318 320 324 326 325 325 324 325 324 325 324 325 325 325 325 323 322 326 323 314 318 325 326 326 325 323 323 321 318 317 318 317 312 311 313 313 313 314 315 316 317 317 318 317 317 317 317 316 315 314 315 315 316 317 317 317 317 317 317 317 316 317 316 317 316 316 315 318 321 321 317 315 315 315
314 320 325 323 324 324 323 323 322 319 319 318 318 317 318 319 321 325 326 326 325 325 325 325 325 325 325 325 325 323 323 326 325 315 312 320 325 326 324 323 323 320 318 316 319 319 312 312 314 312 313 313 314 316 317 317 317 317 317 317 316 315 314 314 314 315 315 316 316 316 317 316 316 316 317 317 316 316 316 316 314 315 319 320 318 316 315 315
317 317 323 324 323 324 323 323 322 319 318 319 319 317 317 319 321 323 325 326 326 325 325 325 325 325 325 325 324 323 325 326 327 320 311 314 320 324 323 322 321 321 319 317 320 320 311 311 314 313 313 313 314 315 316 316 316 317 316 316 315 315 314 315 315 314 314 315 315 317 317 315 315 316 317 317 316 316 316 316 315 314 315 317 317 317 316 315
320 317 322 325 323 323 322 322 321 319 319 319 320 319 318 319 320 322 324 325 326 326 326 325 326 326 326 326 323 323 326 325 326 323 315 312 314 317 320 322 321 320 319 318 322 320 312 311 313 313 314 313 313 315 316 316 316 316 316 315 315 315 315 315 315 314 315 315 315 316 316 315 315 316 317 317 316 316 316 315 315 315 314 315 316 316 317 316
322 320 321 324 324 323 322 321 321 320 319 318 320 320 319 319 320 321 323 323 324 325 325 326 326 326 326 325 324 325 326 324 325 324 318 315 316 315 315 318 320 319 318 318 319 317 311 311 312 312 313 312 313 314 315 316 316 316 316 316 315 315 315 314 315 315 315 315 315 315 316 316 316 316 316 316 317 316 316 316 315 315 315 315 316 317 316 316
321 322 322 324 324 323 322 321 321 320 318 318 319 321 320 319 319 320 321 321 321 322 324 325 324 324 324 322 324 325 323 321 321 322 321 319 320 320 314 312 316 318 317 315 314 312 310 312 313 313 313 312 313 314 314 315 316 316 315 316 316 316 316 315 315 315 315 315 314 315 316 318 317 316 316 316 317 316 315 316 316 316 315 315 317 318 317 315
321 322 322 323 323 322 322 321 320 319 317 317 319 320 320 320 320 320 320 320 320 320 323 322 318 320 321 319 320 322 317 316 317 317 318 319 320 319 314 310 311 314 315 313 311 311 310 312 313 313 313 313 313 314 314 315 315 315 315 317 318 318 316 315 315 314 315 315 314 315 316 318 318 316 316 316 316 315 315 316 316 316 316 316 317 319 318 315
321 322 322 323 323 322 321 320 320 319 318 319 319 320 320 320 319 319 318 319 319 319 321 318 313 315 317 314 315 317 314 312 313 313 312 313 315 314 311 310 310 311 311 311 312 312 311 312 312 312 314 313 313 314 314 314 315 315 316 317 318 318 317 316 315 314 315 315 313 315 316 317 316 315 315 315 315 315 315 315 316 316 316 317 318 318 317 315
321 323 322 323 323 321 320 320 319 319 319 319 319 319 320 319 319 318 317 317 317 318 317 313 310 312 313 312 313 314 313 312 311 312 311 310 311 311 310 309 310 310 311 311 312 313 312 312 312 313 314 313 313 314 315 315 315 315 316 317 318 317 316 316 315 314 315 315 314 314 316 317 315 314 314 314 315 315 315 315 315 315 316 316 317 317 316 315
322 323 322 323 322 320 319 319 319 318 319 319 319 319 319 319 318 317 316 316 316 316 314 309 308 311 313 313 314 312 312 313 312 312 312 311 310 310 310 310 311 312 312 313 313 313 312 311 313 314 314 313 313 314 316 316 316 315 316 317 318 316 316 316 315 315 314 315 315 314 315 316 315 314 314 314 314 314 314 315 315 315 316 316 316 316 315 314
322 323 322 322 321 319 318 318 318 318 318 319 319 319 318 317 317 315 315 315 314 313 312 308 307 312 315 314 314 313 312 313 313 312 312 312 311 310 311 311 312 312 312 313 312 312 311 312 313 313 314 313 313 313 315 317 316 316 317 316 316 317 316 316 316 315 315 315 316 316 315 315 315 315 314 314 313 314 314 314 315 315 315 315 315 315 315 315
322 322 322 322 321 319 317 317 317 317 318 318 318 318 317 315 313 313 314 314 311 311 312 307 307 314 316 315 314 313 313 313 313 312 312 312 312 312 312 312 312 311 312 312 312 312 312 313 313 314 314 313 312 312 314 317 316 317 317 315 316 318 316 316 316 314 315 315 316 316 315 315 315 315 315 315 314 314 314 314 315 315 316 316 316 315 315 315
322 322 322 321 319 318 316 316 317 316 317 317 318 316 314 313 313 314 314 313 311 313 313 308 308 313 313 314 315 313 313 312 311 311 313 313 312 313 313 313 312 312 312 312 313 312 312 315 314 313 314 313 312 313 314 315 316 316 317 316 317 319 316 315 316 314 314 315 315 315 316 316 316 316 316 315 314 314 314 315 315 315 316 316 316 316 316 315
322 322 322 320 318 317 316 317 316 316 316 317 317 315 313 313 315 315 314 313 311 311 312 309 310 312 311 312 314 313 312 311 310 312 313 313 312 313 313 313 312 312 312 313 314 313 312 315 315 313 313 313 312 313 313 315 316 316 317 317 316 318 317 315 315 313 314 316 316 315 315 315 315 316 316 315 315 314 314 315 315 315 315 316 316 316 316 316
321 321 321 319 318 316 316 316 316 316 317 317 316 315 313 313 315 316 315 314 312 310 311 310 310 312 311 312 313 312 312 312 312 312 313 313 313 313 313 313 312 313 313 313 314 315 314 314 314 313 313 314 314 314 314 315 316 317 318 317 317 318 317 314 314 314 313 315 316 316 316 316 315 316 316 315 315 315 315 315 315 316 315 315 316 316 316 316
321 321 320 319 317 316 316 316 316 317 317 316 315 314 314 313 314 315 314 313 312 311 311 310 311 312 311 312 312 311 311 312 313 313 312 312 313 313 314 313 312 313 313 313 314 315 314 313 313 313 313 314 315 314 314 315 316 317 317 316 317 319 318 316 315 314 313 314 315 317 318 317 316 317 317 315 316 316 316 316 316 316 316 315 315 315 316 317
320 320 319 318 317 316 316 316 317 317 316 316 315 314 315 314 314 315 314 312 310 311 311 310 311 312 311 312 311 311 312 311 312 313 312 312 313 313 313 313 312 313 313 313 314 314 314 313 312 314 314 315 315 315 316 315 315 318 319 318 318 320 319 318 315 313 313 314 315 315 316 317 316 315 316 315 316 316 315 317 316 317 317 316 315 316 317 317
319 318 318 317 316 316 316 316 316 316 316 316 315 314 315 314 313 314 313 312 311 311 311 310 311 311 311 311 311 312 312 312 313 312 311 312 313 313 313 313 313 313 314 314 314 314 314 311 311 315 316 316 317 316 318 318 315 316 320 320 318 318 319 318 317 315 314 316 317 314 316 321 319 316 316 315 316 316 315 316 317 317 317 316 317 316 316 317
318 317 317 316 316 316 316 316 316 316 316 316 315 314 314 312 312 314 313 313 313 311 310 310 311 312 311 311 311 312 312 312 313 312 312 313 313 312 313 313 313 313 314 314 314 315 314 310 313 318 317 318 318 316 318 320 314 313 320 323 319 320 322 321 319 317 316 317 318 316 317 320 320 316 317 317 318 317 317 316 316 316 317 317 316 316 316 317
317 317 316 316 316 315 315 315 315 315 315 315 315 313 313 312 313 315 313 314 314 312 310 310 311 312 312 312 311 311 312 313 313 312 312 312 313 313 312 312 312 313 314 314 314 315 313 311 315 319 319 320 318 316 318 318 314 316 323 326 321 320 324 324 322 319 318 318 317 316 317 318 319 318 318 318 317 317 317 318 316 315 315 316 316 316 315 315
316 316 316 316 315 315 315 314 314 315 315 315 314 312 312 311 312 314 314 314 314 312 310 309 310 312 312 312 311 311 312 313 313 313 312 312 313 312 311 312 312 314 314 313 314 315 314 315 318 319 318 319 317 319 322 318 316 320 324 325 322 321 324 324 322 319 319 320 319 318 317 318 320 320 317 318 316 316 317 318 317 314 314 315 315 316 315 314
316 316 316 315 315 314 314 313 314 315 315 315 313 311 312 311 311 313 314 314 312 310 310 309 310 313 313 312 312 312 312 312 313 313 312 312 312 311 312 312 312 313 312 313 317 318 315 314 316 318 319 318 317 320 325 322 318 319 321 323 323 323 323 322 321 319 319 320 321 321 318 317 320 320 316 317 316 317 317 316 316 313 314 316 315 316 315 314
316 316 315 315 314 314 313 313 314 314 314 314 312 312 311 310 311 312 313 313 312 310 310 309 311 313 313 312 312 312 313 312 312 312 312 312 312 311 312 312 312 315 317 319 319 315 312 310 313 316 315 315 315 315 318 322 318 317 320 322 321 321 321 319 320 319 318 321 321 321 318 316 320 321 317 318 317 317 317 317 319 316 316 317 316 315 315 314
315 315 315 314 314 313 313 314 314 314 314 313 313 311 310 309 310 312 313 313 313 312 309 309 311 313 312 312 312 312 313 313 312 312 311 311 311 310 312 313 314 317 319 320 319 315 312 312 313 313 311 312 315 315 315 317 317 318 322 322 320 319 318 317 318 317 319 321 318 318 319 318 319 319 316 317 317 316 317 318 321 318 315 315 315 314 314 313
315 315 314 314 313 312 313 313 313 313 314 313 312 310 309 309 310 312 313 313 314 312 310 310 312 313 313 313 312 312 313 313 312 312 311 311 311 311 312 314 314 315 314 316 319 317 316 315 314 313 311 312 317 318 316 315 316 320 321 319 319 319 317 317 318 318 319 319 314 314 317 318 318 316 314 316 315 315 316 316 318 317 315 315 314 314 313 313
314 314 314 313 313 312 312 312 313 313 313 312 310 309 310 310 310 312 313 313 314 313 311 311 312 312 313 313 313 313 314 314 312 312 312 312 312 311 313 315 315 314 314 316 317 317 318 317 314 315 313 312 316 317 315 315 316 318 319 319 320 319 316 317 318 319 319 317 313 312 315 318 317 315 315 316 314 314 314 315 317 316 315 315 314 313 314 314
314 314 313 313 312 311 312 312 313 313 311 310 310 310 311 311 311 313 313 313 313 312 311 311 312 312 312 313 313 313 315 315 312 312 313 313 312 312 313 314 314 316 316 316 316 315 317 316 315 316 314 313 316 317 316 317 315 316 318 319 320 318 318 319 318 321 322 318 312 312 316 320 318 317 316 314 312 313 314 314 315 314 314 314 313 313 313 314
314 313 312 312 311 311 311 312 313 312 310 310 311 310 311 311 311 313 313 313 313 312 311 312 312 312 312 314 314 313 315 316 314 313 313 313 312 312 312 312 314 316 315 314 315 314 314 316 315 314 313 314 316 317 317 316 315 316 319 320 319 319 322 321 317 318 321 319 315 314 319 321 318 317 316 313 312 313 312 313 312 312 312 312 312 313 313 314
313 312 312 311 310 310 311 311 311 310 309 310 310 310 311 311 312 313 313 313 312 312 312 312 313 312 312 314 315 314 316 316 314 314 314 313 313 313 313 313 313 314 314 314 316 315 314 316 315 313 313 312 312 314 315 315 316 318 318 319 319 320 323 321 315 314 314 316 318 317 318 318 314 315 317 315 314 313 311 312 311 311 311 311 312 313 314 314
312 311 311 310 310 310 310 310 310 310 310 311 310 311 311 313 316 315 313 313 312 313 313 312 313 312 311 314 315 315 316 317 315 315 315 314 314 314 313 313 313 313 315 315 316 317 317 316 314 314 316 312 308 311 313 311 314 319 319 318 316 317 321 318 315 315 314 314 316 317 317 316 315 317 318 315 314 314 313 312 311 312 312 311 313 314 314 314
312 311 310 310 310 310 309 310 310 310 311 312 312 312 313 315 317 314 313 314 313 313 313 313 313 312 312 314 315 315 316 316 315 315 315 314 315 315 313 314 314 313 314 315 317 319 319 319 315 313 315 313 310 312 314 311 312 315 316 316 316 318 319 316 313 316 317 314 315 318 317 316 316 316 317 316 316 315 314 312 312 313 312 311 314 315 314 314
311 311 311 310 309 309 309 309 309 310 312 313 312 313 317 319 317 313 313 314 313 314 314 314 314 313 314 315 315 315 315 315 315 315 316 315 314 315 314 314 315 314 312 313 317 320 319 320 318 313 313 315 313 313 315 314 313 313 313 314 316 317 317 317 316 315 317 316 316 317 317 319 320 318 316 318 318 315 314 313 312 312 312 312 314 315 314 313
310 311 311 310 309 309 309 309 310 310 311 312 311 313 317 318 316 314 313 313 314 314 314 315 314 313 315 315 315 315 314 315 315 315 316 314 314 315 314 314 315 314 313 313 316 319 316 317 320 315 312 314 315 314 315 316 313 312 314 314 314 314 315 318 318 315 315 315 316 315 315 320 323 317 315 315 316 316 314 314 313 311 312 312 313 315 315 313
311 312 312 310 309 309 309 309 311 311 311 311 311 314 317 316 315 315 314 314 315 314 315 316 315 314 315 315 314 315 314 315 315 315 315 314 313 315 314 313 314 313 314 313 315 318 315 315 318 315 313 315 317 316 314 317 317 314 314 314 313 314 315 316 317 316 314 315 318 316 316 324 324 317 317 315 315 317 314 313 313 311 312 312 313 315 314 313
312 313 312 310 309 309 309 311 311 310 310 311 312 315 315 314 315 316 315 315 316 316 316 316 315 315 316 315 315 315 314 314 315 315 315 314 314 315 315 313 313 312 313 314 314 316 317 319 318 315 315 315 315 313 310 314 320 318 315 316 315 314 314 315 317 318 317 315 316 314 316 326 326 319 317 315 313 312 311 312 314 312 313 313 313 314 314 313
313 312 311 310 309 309 310 311 311 310 311 312 313 315 313 313 315 316 315 316 317 317 318 318 316 315 316 316 315 316 314 313 315 315 314 315 316 315 315 313 313 312 312 314 314 313 315 320 319 316 315 314 314 314 311 313 318 318 317 317 317 314 314 315 317 319 319 317 316 314 314 320 323 319 313 310 308 308 308 311 314 314 313 313 313 314 313 313
312 312 311 309 309 310 311 311 311 311 312 313 315 316 314 315 315 314 315 317 316 317 319 319 318 317 318 318 316 316 314 313 316 316 315 317 317 314 314 313 313 313 312 313 314 312 313 318 319 317 317 316 316 315 314 315 316 317 316 315 315 316 316 316 316 316 318 321 320 316 315 318 322 319 313 309 310 309 308 309 313 315 314 314 314 314 313 314
311 311 311 309 309 312 313 312 311 311 312 314 316 315 316 316 314 314 315 316 315 316 317 318 318 318 320 320 317 317 315 315 318 317 317 319 317 314 314 313 312 313 312 313 312 312 315 318 317 317 316 316 316 315 315 316 315 315 316 315 315 318 318 317 316 315 317 321 320 317 316 317 318 316 314 313 314 312 309 308 310 314 314 314 314 314 314 314
311 311 311 310 310 312 313 312 312 312 312 314 314 314 314 315 313 313 315 316 316 316 317 317 317 317 319 319 318 317 315 317 320 319 318 320 319 315 314 313 313 311 311 313 311 312 318 318 314 314 314 314 314 314 317 318 316 315 316 316 317 318 318 317 317 316 316 319 318 318 318 316 314 314 315 315 316 316 312 308 308 311 314 314 314 314 314 314
311 311 311 310 310 311 312 312 313 314 313 313 313 313 313 314 313 313 315 316 315 317 318 318 316 316 317 317 318 318 317 318 320 319 318 319 317 314 312 312 313 311 310 311 310 314 319 316 314 315 314 314 315 316 319 319 317 317 317 316 316 317 317 317 316 316 316 316 316 316 318 317 315 314 316 317 318 316 312 308 307 310 312 314 314 314 314 314
309 309 309 310 310 311 311 311 312 314 314 312 312 313 313 313 313 313 314 315 315 316 318 318 316 316 316 316 317 318 318 319 318 318 319 317 315 314 313 313 312 310 311 312 312 314 317 315 315 316 314 315 316 317 320 319 317 317 317 316 316 316 317 317 316 315 315 315 315 315 317 317 314 313 316 317 316 314 311 310 309 309 310 313 314 314 313 313
305 306 307 308 310 310 310 311 311 314 314 312 312 313 313 313 312 312 315 315 315 316 317 317 317 317 317 317 317 317 318 318 317 317 319 316 315 317 316 314 312 310 311 314 313 313 315 315 316 315 314 316 317 318 321 320 317 317 316 316 316 315 315 316 315 314 314 315 315 314 316 316 314 315 316 315 313 312 311 311 310 309 310 312 313 313 313 312
304 305 306 307 308 309 310 310 311 313 314 312 312 313 313 312 312 313 315 315 314 316 316 315 316 316 317 317 316 316 317 317 317 317 318 317 315 316 316 314 314 312 311 313 313 312 313 316 317 315 314 315 316 318 321 322 321 320 318 318 317 317 317 316 315 315 314 314 314 314 315 315 313 314 315 314 314 313 311 311 311 310 311 312 313 313 312 312
303 304 305 307 308 309 310 311 311 312 313 312 312 313 313 313 312 313 315 315 313 314 315 316 317 316 317 317 316 316 317 317 317 316 315 316 315 314 315 314 313 313 313 314 314 313 314 316 317 316 316 315 315 317 319 320 319 319 319 320 320 319 318 316 315 315 314 314 315 315 315 314 313 312 313 314 313 311 310 311 311 310 311 312 312 312 312 312
303 304 306 307 307 307 310 311 311 311 313 312 311 312 313 313 314 314 314 314 315 315 314 316 317 316 316 317 316 316 316 316 317 314 313 314 313 312 314 313 310 312 313 314 314 314 314 315 316 317 315 314 315 316 317 317 316 315 316 317 318 318 318 317 316 315 315 314 315 315 314 313 313 313 313 314 313 310 310 311 311 311 311 311 311 312 312 312
Wind_Speed
46 46 44 44 44 43 42 41 40 40 39 41 43 43 42 41 40 39 39 39 36 32 30 29 27 25 22 22 21 19 18 17 17 18 19 16 16 19 20 15 10 5 3 3 8 8 6 7 6 6 9 10 8 10 10 10 10 4 1 2 4 4 4 5 4 6 8 6 6 11 14 9 7 7 6 7 6 7 8 8 7 7 7 7 13 15 12 11
46 45 43 43 44 44 43 42 41 40 39 40 42 43 42 41 40 39 39 38 36 32 30 29 27 24 21 21 20 19 17 16 17 20 20 16 16 20 20 15 11 8 1 2 9 7 5 7 7 8 9 10 9 9 9 8 8 6 2 2 5 4 2 5 7 7 10 10 10 13 13 8 9 12 10 6 7 9 7 8 10 9 9 10 13 14 12 12
47 47 43 41 44 43 41 42 41 41 41 40 41 43 43 41 41 40 39 38 36 34 31 29 28 24 20 19 18 17 16 13 16 24 23 17 17 20 19 16 10 10 7 5 9 6 4 8 9 11 11 11 12 11 9 6 6 8 5 2 5 2 4 8 14 12 13 16 13 12 10 6 10 13 10 7 8 10 8 10 14 13 13 13 15 14 12 13
47 47 45 42 44 44 41 40 40 41 41 41 41 41 43 42 41 41 39 38 36 35 33 30 28 26 22 20 18 17 14 9 17 30 27 20 21 21 20 17 9 10 14 11 10 7 5 7 7 10 14 12 14 12 8 7 6 5 6 3 4 3 5 8 14 12 13 16 13 13 10 6 9 10 9 8 6 7 10 14 16 17 17 16 17 15 11 13
45 45 46 45 44 44 41 39 39 40 40 41 41 41 42 43 42 41 40 38 36 35 34 32 29 28 25 23 21 18 13 3 11 27 29 25 25 24 22 19 11 10 17 16 12 8 7 8 9 10 14 11 10 9 6 11 9 3 7 5 7 4 3 7 12 11 10 13 14 13 9 8 9 7 10 10 4 3 6 12 16 17 19 17 17 16 12 13
42 44 45 44 42 44 43 39 38 39 38 40 40 41 41 42 42 41 40 38 37 36 35 34 31 30 27 25 23 20 16 4 3 12 23 29 29 29 24 21 18 13 16 18 15 10 9 9 8 8 11 10 8 7 8 13 10 3 8 6 7 8 4 6 9 11 9 10 12 12 10 12 11 6 11 12 4 5 5 9 12 11 15 17 16 17 14 13
42 44 47 47 43 43 44 39 38 38 36 38 39 39 39 40 40 40 40 39 38 37 35 35 33 32 29 26 23 21 21 13 3 5 13 27 29 30 26 23 23 17 17 17 16 13 12 10 9 9 9 9 9 8 9 11 8 4 6 4 3 7 6 4 7 10 8 8 9 11 11 12 10 6 9 11 6 4 2 5 8 8 12 15 14 14 14 13
45 45 50 53 47 42 43 39 38 38 35 35 37 37 38 39 39 38 39 39 38 37 36 36 34 33 30 26 24 20 22 25 12 4 3 22 27 26 26 26 25 19 18 17 15 14 13 12 12 12 8 7 10 7 7 6 5 7 5 1 4 6 5 4 7 9 7 6 8 10 9 9 9 5 6 10 9 8 6 4 6 8 12 14 13 13 13 13
48 47 48 52 49 43 42 39 37 38 35 34 35 36 37 37 37 37 38 38 38 37 37 36 34 32 28 26 24 17 23 30 20 6 2 11 23 23 24 26 26 21 17 18 18 16 14 15 14 12 9 11 12 6 8 6 3 7 3 3 5 5 4 5 5 7 5 4 7 7 6 5 6 5 4 10 10 11 11 8 8 9 12 13 13 14 13 14
50 49 47 47 46 43 41 39 37 37 35 34 34 35 35 34 35 35 36 37 37 37 37 36 33 31 27 27 22 12 23 27 22 18 7 5 15 21 26 25 23 22 20 21 23 19 18 18 14 12 12 12 11 5 8 7 3 4 6 7 6 4 4 4 4 6 3 4 7 4 4 3 3 4 3 10 13 13 12 11 11 11 11 12 12 14 15 15
51 51 49 45 43 42 41 39 37 36 36 34 32 33 34 33 32 33 34 35 36 37 36 35 33 31 29 29 23 12 20 23 23 27 18 7 7 13 24 29 25 22 21 25 26 23 23 20 13 10 10 8 7 5 5 6 1 3 10 7 4 4 4 3 4 6 3 3 7 1 4 4 2 3 4 11 16 15 15 13 13 14 13 12 12 13 15 16
53 53 52 48 44 42 40 38 36 35 35 34 33 31 32 32 30 31 32 32 35 36 35 34 33 32 30 27 25 21 20 20 23 30 26 14 8 7 14 25 29 24 21 26 26 23 22 18 14 13 9 5 5 2 3 7 3 3 7 3 3 3 2 4 4 6 3 2 7 3 3 2 2 8 11 13 16 16 15 14 14 15 15 15 14 15 16 16
54 54 54 52 47 43 41 37 35 34 35 36 33 30 31 31 29 30 30 28 30 32 32 32 31 33 29 20 22 25 17 15 19 25 27 23 19 14 11 19 28 29 27 25 22 22 21 17 13 15 15 9 5 2 2 4 5 4 5 3 4 2 2 7 6 5 3 2 7 3 1 5 6 17 20 15 15 16 14 14 14 14 14 16 16 17 18 18
56 55 55 53 49 45 41 37 35 35 36 37 35 32 30 29 29 28 28 27 24 23 28 31 29 30 26 15 16 23 16 12 16 18 20 22 21 18 14 16 23 29 30 24 19 19 21 17 12 12 14 11 6 4 1 1 3 4 4 3 3 2 3 7 9 8 4 2 8 4 1 5 4 10 17 17 16 16 14 14 14 12 13 16 18 19 20 20
57 57 55 52 49 46 41 38 36 35 37 37 36 33 30 28 27 25 25 26 24 24 28 31 27 23 19 10 11 21 20 14 14 13 12 15 19 17 15 18 22 25 26 23 18 16 18 18 14 10 9 10 7 4 1 1 2 3 3 3 3 3 2 3 6 10 5 2 7 5 2 6 1 4 12 16 15 14 14 13 13 13 13 15 18 20 21 21
57 58 55 53 50 47 43 38 37 38 38 37 35 32 30 28 26 24 22 22 23 27 28 28 28 19 10 7 10 18 22 19 15 12 10 13 17 16 15 19 21 21 22 21 18 14 15 16 14 10 6 7 6 3 2 2 2 3 4 3 4 5 3 1 2 4 4 4 6 5 2 4 2 5 9 12 13 13 13 12 13 14 14 15 16 18 19 20
58 60 56 53 51 47 43 40 39 40 39 37 36 32 29 28 27 24 20 17 20 25 23 23 26 15 5 8 12 17 23 25 22 15 11 12 16 15 15 20 20 20 19 18 16 12 12 13 10 7 5 4 4 4 4 4 3 3 3 2 4 6 5 3 1 3 5 3 4 6 4 4 3 6 9 10 12 12 12 13 13 14 14 14 15 16 16 18
60 60 56 54 52 48 44 42 42 41 40 38 35 33 30 27 26 23 20 19 22 20 12 15 20 7 7 16 16 17 24 25 25 20 14 14 16 15 16 19 19 19 17 13 13 12 11 11 7 4 4 4 4 5 4 4 4 4 4 3 4 5 5 5 2 4 7 3 3 6 6 9 7 6 9 11 12 13 12 13 12 13 14 14 15 16 16 17
62 59 56 55 51 49 45 44 44 42 43 39 35 36 31 26 22 19 23 24 27 19 6 21 28 4 3 19 18 15 21 22 22 21 17 18 18 16 16 15 18 21 16 9 9 13 11 6 5 4 4 5 6 6 6 5 5 7 8 6 5 5 5 3 2 3 7 3 3 6 7 9 9 7 7 11 13 14 14 12 12 13 13 14 15 17 17 18
61 58 57 55 51 50 46 46 46 45 47 42 42 40 29 26 18 14 25 29 36 27 8 30 40 4 7 18 22 17 17 19 21 21 18 20 20 18 16 15 19 17 11 7 6 12 13 5 4 6 6 7 8 8 8 6 4 5 8 7 6 5 3 2 3 2 4 3 5 7 7 8 9 8 8 13 15 14 14 14 14 15 15 16 16 17 18 19
61 58 57 54 52 52 49 49 48 48 49 45 49 43 32 36 19 17 33 28 39 30 6 28 40 7 6 21 26 22 21 18 19 22 18 20 23 17 15 16 14 8 7 11 8 7 11 6 6 9 8 8 9 9 10 6 4 5 3 6 7 5 2 2 3 3 2 1 5 8 9 11 10 8 10 12 12 13 17 16 17 18 18 18 17 18 19 18
62 59 58 55 53 53 51 51 49 49 48 44 50 38 37 49 21 24 42 19 26 25 9 28 36 8 7 19 26 26 23 17 15 22 21 24 26 15 15 15 8 6 8 11 8 4 6 6 7 10 10 6 7 10 9 4 2 5 2 2 4 3 3 2 3 2 2 1 2 3 5 9 10 8 9 12 11 14 20 21 21 22 21 20 20 20 20 18
63 61 59 55 54 52 51 52 49 49 48 47 49 33 35 42 11 21 41 17 14 16 8 31 28 9 12 17 24 24 20 17 15 23 26 28 27 17 17 14 7 9 9 9 8 5 5 5 7 10 9 4 2 7 6 2 1 2 2 0 2 3 4 1 1 2 1 1 1 3 3 5 7 7 8 15 21 20 20 22 23 23 24 24 23 21 21 21
64 63 60 57 55 53 52 52 49 48 47 48 46 31 29 30 13 25 35 13 8 10 12 31 22 10 14 17 24 20 15 18 17 24 30 30 26 16 15 15 10 9 8 10 11 8 6 3 5 6 8 7 2 3 5 3 3 3 3 2 3 2 4 3 3 4 1 2 1 3 5 5 6 8 8 13 20 20 20 22 21 23 25 24 23 23 23 22
64 62 59 58 56 53 52 51 48 48 46 45 44 31 25 28 28 35 26 9 7 7 11 24 16 12 14 16 23 17 11 13 16 26 33 31 25 13 12 15 11 8 10 13 10 7 5 2 3 4 6 8 6 4 5 5 3 3 5 5 2 2 5 8 5 4 2 2 2 3 1 6 5 9 10 9 10 13 17 18 19 23 24 24 24 24 24 23
62 60 60 60 56 54 52 48 48 49 45 45 43 32 29 35 38 33 16 5 6 5 8 16 15 16 17 16 22 16 8 8 13 26 33 30 23 12 10 10 5 5 11 10 5 3 2 1 2 4 6 6 5 4 5 6 4 3 4 4 2 5 7 8 6 4 2 2 2 2 4 5 4 4 8 7 7 9 10 10 15 21 23 25 27 28 27 26
60 59 60 60 58 58 55 48 50 51 47 47 43 33 35 42 38 26 10 2 5 7 8 10 11 17 17 18 25 14 4 9 14 22 32 30 21 11 7 6 2 4 9 7 3 1 3 3 2 4 5 4 4 3 4 6 4 3 3 3 3 7 6 7 6 3 2 1 2 1 2 2 5 5 5 3 6 6 7 7 11 17 20 23 25 26 27 27
59 60 61 61 60 59 54 50 54 54 50 49 41 33 39 43 32 17 6 1 6 9 8 8 9 14 15 20 26 10 5 16 13 13 29 29 19 9 4 6 5 3 4 6 6 1 2 5 5 6 6 3 4 1 3 7 4 3 2 3 2 4 4 6 5 3 1 3 1 3 2 1 5 6 4 1 4 5 7 9 10 16 20 19 20 20 21 23
62 62 62 62 59 53 46 48 55 51 46 46 40 34 39 36 19 6 2 4 6 6 8 11 10 14 18 20 21 9 7 12 5 10 25 23 17 8 2 7 9 5 4 4 5 0 1 4 4 6 6 3 3 2 2 4 3 4 3 4 5 3 3 3 3 3 2 1 4 5 4 3 5 5 4 1 3 6 8 8 8 14 18 16 16 17 18 20
64 63 62 62 58 48 39 43 49 44 44 48 42 37 34 22 9 4 5 5 5 5 9 13 10 16 20 15 13 10 7 4 6 16 20 15 14 7 3 9 10 6 4 6 5 1 1 2 2 2 3 3 5 3 4 2 5 6 4 5 5 4 4 3 1 3 2 2 4 4 6 5 4 4 5 4 4 5 5 4 3 8 12 13 13 14 14 15
65 63 62 62 57 46 40 45 46 44 48 48 41 34 23 9 3 5 7 6 6 5 7 10 11 15 19 14 9 10 7 4 9 17 13 9 9 5 4 7 5 4 2 4 4 1 2 3 2 2 2 4 6 4 5 3 4 5 3 5 4 3 3 3 2 2 1 4 3 3 1 3 4 5 3 3 3 3 2 2 4 7 9 10 10 10 11 12
63 62 60 59 51 40 40 45 46 48 51 45 39 31 16 5 4 5 5 8 7 6 7 11 14 15 16 14 10 10 8 5 8 13 10 8 7 6 6 5 5 4 2 3 2 1 3 2 1 2 0 4 4 4 4 4 2 1 3 6 4 1 1 1 1 1 3 4 2 2 3 1 6 6 6 7 5 5 4 2 6 10 10 8 7 7 9 10
62 60 57 55 45 35 36 40 47 53 48 39 35 24 9 5 8 7 6 6 6 9 10 13 16 16 15 12 9 10 8 6 9 11 9 8 6 7 7 6 9 7 3 5 4 2 1 2 1 3 0 5 4 4 4 1 2 4 5 6 5 3 2 2 3 2 3 3 3 3 1 2 4 5 10 13 10 7 6 6 9 12 12 8 7 7 8 8
60 58 54 49 41 34 34 41 52 54 43 33 26 14 7 8 9 9 8 5 5 11 13 13 15 17 15 11 9 10 7 5 9 10 8 8 7 7 8 8 11 6 3 6 4 5 5 2 3 3 1 6 6 3 4 5 4 5 5 5 5 4 3 4 4 3 3 1 3 3 1 3 3 3 6 7 4 4 7 9 10 11 10 8 7 7 7 8
57 54 50 44 41 36 36 47 54 48 39 30 16 7 9 11 9 9 9 5 5 11 14 15 16 15 12 8 10 12 6 4 9 9 7 9 8 8 8 8 10 8 6 6 4 5 7 3 2 1 1 4 5 1 1 5 4 3 2 4 4 4 3 3 2 3 4 2 1 1 2 4 5 4 5 4 5 6 8 9 10 9 8 7 7 7 7 8
54 50 45 42 43 39 40 52 53 44 38 26 9 7 10 8 6 8 7 7 9 12 16 15 13 12 10 6 9 12 5 5 10 8 6 8 7 9 10 8 11 11 7 6 3 2 5 2 3 3 3 2 1 2 3 2 2 2 2 3 4 3 6 4 1 0 3 0 3 3 3 5 3 6 6 5 5 4 6 8 10 11 9 8 9 9 9 9
53 48 45 44 43 40 44 52 50 43 36 18 7 10 9 5 3 5 7 10 14 16 16 13 9 10 12 8 9 13 8 6 10 7 6 7 6 10 11 8 12 14 9 6 2 2 5 2 3 1 2 2 2 2 3 3 2 3 3 4 2 1 3 3 1 1 2 2 3 4 5 5 3 4 3 4 5 5 6 7 8 10 11 10 11 11 11 11
51 46 43 42 40 39 42 46 46 42 27 10 9 11 7 3 1 5 12 14 16 17 13 9 8 8 11 9 9 13 11 8 9 7 7 7 5 10 13 8 10 16 13 6 3 2 5 4 2 3 1 1 2 2 2 3 4 3 2 1 2 1 1 1 2 1 2 3 3 4 6 5 4 4 1 3 7 7 7 8 7 9 12 13 13 13 13 13
46 38 31 36 38 35 39 43 44 36 18 7 10 9 4 2 1 9 22 19 14 14 10 8 9 8 9 10 10 12 12 10 10 7 6 6 4 9 14 9 7 14 16 7 3 3 3 3 1 3 3 1 1 0 5 2 1 2 2 2 2 2 3 3 3 2 2 3 3 3 4 4 5 6 6 7 9 9 9 9 8 11 16 17 16 17 16 16
43 25 18 34 37 32 39 42 34 23 11 9 11 5 4 3 1 10 26 24 11 6 8 9 10 10 9 11 11 11 10 10 11 8 6 7 5 7 13 12 8 12 16 8 3 2 2 2 3 1 3 1 1 2 4 5 4 2 1 1 1 1 2 1 2 2 2 3 3 3 3 5 5 5 8 9 9 9 11 9 8 13 19 20 18 19 19 19
35 13 12 34 35 32 42 33 18 13 9 9 9 4 4 5 3 5 14 19 9 2 4 10 11 11 10 11 12 10 8 8 10 8 5 8 8 5 9 12 11 11 11 6 3 2 1 2 4 2 1 2 1 1 1 2 5 4 4 5 6 4 3 1 3 3 3 3 3 3 3 5 5 2 2 4 3 4 8 9 11 16 21 21 20 21 21 21
20 6 17 35 35 39 41 19 9 12 8 7 6 4 6 7 7 5 5 9 7 3 2 7 9 9 9 10 11 11 10 8 9 9 6 9 9 5 9 16 19 18 12 6 4 3 3 4 4 3 2 2 1 0 1 2 2 2 2 4 5 5 5 5 5 4 3 2 2 2 2 6 5 2 3 3 3 3 2 5 10 17 22 23 23 22 22 22
13 13 23 33 37 43 31 9 9 10 5 7 7 6 6 6 5 6 4 4 4 1 2 4 8 9 7 8 10 12 12 9 10 12 8 8 6 3 10 21 22 18 11 5 4 3 3 4 4 3 2 2 1 1 1 1 2 2 4 4 5 6 6 6 4 3 3 3 3 2 4 6 5 2 3 4 3 1 1 1 5 13 19 21 23 23 23 25
23 26 26 32 38 36 19 8 12 12 7 9 8 4 3 3 4 7 7 5 4 3 3 3 6 7 5 6 8 11 12 8 8 10 7 6 5 1 8 23 23 13 8 8 9 8 5 3 4 4 2 2 2 2 2 2 3 2 2 3 3 2 2 2 0 1 1 5 7 5 5 6 5 3 3 3 4 4 5 3 5 10 15 19 22 24 26 28
24 20 21 32 37 26 10 4 7 10 10 10 8 7 5 3 2 5 8 6 3 4 4 3 6 8 5 5 7 8 12 7 4 7 5 4 3 3 3 20 23 12 7 11 16 14 7 4 5 6 6 6 6 6 5 3 2 1 1 2 4 3 4 3 2 2 3 5 7 5 5 6 5 3 2 2 3 4 6 7 8 10 14 18 22 25 28 30
15 8 12 21 25 19 9 4 3 6 11 10 8 9 9 5 1 2 7 6 1 4 4 3 7 8 5 7 8 8 12 6 3 6 6 4 3 3 1 10 14 10 9 16 23 16 3 3 7 9 10 11 10 6 5 7 5 4 5 7 8 8 9 5 2 4 5 5 5 5 6 9 11 6 3 4 6 6 6 8 11 13 14 17 21 25 29 31
9 7 9 11 12 13 9 7 6 5 10 12 8 8 11 9 5 2 3 1 3 5 4 2 6 8 8 12 10 7 11 6 5 7 8 5 3 2 3 4 5 8 10 15 20 13 3 4 8 9 12 12 7 5 8 9 7 8 10 12 11 10 11 9 7 8 8 5 7 9 8 11 16 11 7 6 7 6 6 10 15 16 16 17 20 24 27 29
5 6 12 14 8 7 9 10 10 7 11 14 7 7 12 11 9 8 1 1 5 6 3 2 6 10 13 14 9 7 9 6 4 7 7 5 4 4 4 6 5 5 6 7 10 7 3 5 7 7 11 10 6 7 7 8 9 9 12 14 14 13 13 13 13 14 11 8 10 13 13 15 16 12 8 8 9 9 12 15 16 15 16 17 20 25 27 28
6 6 10 13 5 4 9 10 8 6 10 14 7 7 14 14 13 10 3 3 5 4 4 6 8 10 12 12 9 8 10 9 6 6 5 6 6 5 3 2 2 2 3 4 4 2 2 4 5 6 8 9 6 7 7 8 8 9 12 14 13 14 15 15 16 17 17 15 14 16 16 16 13 9 7 9 13 16 16 15 14 14 17 20 22 25 27 28
5 4 6 8 3 4 11 11 7 5 6 11 9 7 11 14 14 10 4 6 10 7 6 8 11 12 11 11 10 8 12 13 10 9 8 8 6 5 4 4 4 3 3 3 2 1 3 4 5 6 4 7 7 7 7 8 8 8 10 11 11 12 13 15 16 16 15 15 16 16 15 14 12 10 9 10 12 13 12 13 16 18 19 21 22 25 28 30
5 3 7 8 3 3 10 8 7 6 6 8 9 7 9 12 15 11 3 3 7 9 9 9 11 10 9 11 12 10 12 11 9 15 18 14 12 10 5 6 9 7 4 4 4 3 4 3 4 6 4 6 7 9 8 6 4 5 6 8 11 12 12 13 14 14 13 12 13 13 12 12 12 11 11 10 9 12 13 16 18 17 19 22 24 26 29 31
8 6 8 9 3 1 6 7 7 8 7 8 9 9 9 10 12 11 5 1 2 5 11 11 11 9 7 11 11 8 10 10 8 17 20 14 12 12 8 11 17 14 7 5 4 4 5 4 3 6 5 7 6 9 7 3 1 5 9 13 15 14 12 12 11 12 13 12 11 10 12 14 11 9 10 9 7 10 15 18 18 17 20 24 25 26 28 30
Wind_Direction
217 213 211 206 207 208 205 206 206 207 207 207 208 208 206 205 203 200 200 202 204 205 204 203 200 203 205 204 209 211 215 211 204 214 222 218 213 211 205 209 222 200 46 74 176 204 223 223 246 286 284 283 272 248 256 251 243 254 221 226 243 238 191 177 172 137 134 134 145 167 170 153 147 171 167 151 146 141 143 150 158 170 178 146 143 164 188 192
217 212 208 203 207 209 207 208 207 206 207 208 208 209 209 207 206 203 203 204 205 205 205 205 203 205 204 204 207 207 216 218 221 228 222 214 208 205 199 203 216 205 333 73 173 195 215 226 266 286 266 256 258 243 247 244 227 232 220 220 240 250 190 135 98 103 128 142 153 164 183 178 158 169 167 170 174 161 153 170 174 169 180 168 160 179 198 198
217 214 207 203 207 208 207 210 210 208 208 208 208 208 210 210 209 207 205 205 205 205 205 205 204 204 203 202 201 203 215 224 237 232 215 202 200 198 197 198 192 187 212 201 182 193 224 252 280 292 275 247 243 233 233 235 215 232 230 247 245 195 60 80 86 86 117 137 148 154 180 169 144 160 169 186 180 175 187 178 172 178 190 187 181 191 201 201
211 213 212 206 208 207 205 208 210 209 209 209 209 208 210 211 210 209 208 206 205 205 206 205 205 204 204 201 200 205 211 228 242 231 214 196 195 193 192 193 179 173 197 209 195 197 250 261 247 277 287 257 232 220 218 222 207 229 219 240 284 150 80 74 97 101 115 134 145 146 158 148 142 157 172 198 184 177 210 198 187 192 199 196 191 195 201 202
210 211 212 206 206 207 203 205 208 209 209 209 210 209 209 211 212 211 210 209 207 206 207 207 206 206 207 203 204 201 195 214 250 236 223 205 198 197 195 199 207 187 190 204 201 205 264 255 224 259 283 266 226 206 211 223 213 247 240 247 353 8 89 88 110 119 120 132 140 142 154 154 152 163 179 205 208 144 200 195 188 196 202 199 193 193 196 201
214 209 210 208 206 208 204 202 206 208 208 209 211 211 209 210 213 212 212 211 209 209 208 209 208 209 209 206 207 196 186 180 315 249 229 215 207 206 206 207 220 210 189 200 199 208 260 253 237 262 272 267 239 211 213 220 211 242 252 242 14 23 74 90 119 128 127 133 137 151 162 153 155 173 191 216 221 112 115 154 162 177 194 196 191 192 196 200
219 211 210 212 207 206 206 201 204 207 207 208 211 212 210 209 212 213 213 211 211 211 210 210 210 211 210 208 204 193 195 212 309 341 223 211 210 211 210 207 218 216 195 200 196 207 255 250 232 248 256 261 251 231 210 205 197 220 262 241 70 62 73 83 127 130 128 133 136 156 159 153 170 179 186 217 220 155 132 149 152 150 173 186 186 192 202 207
220 217 210 210 207 202 203 201 202 207 206 207 210 211 211 209 210 212 213 213 212 211 212 212 212 212 211 209 200 188 205 220 230 350 205 203 205 208 208 206 215 214 199 201 198 209 245 243 228 236 243 255 250 230 195 189 192 221 267 341 95 82 87 98 125 133 126 132 136 151 149 147 177 172 176 215 215 205 225 203 173 159 168 187 195 197 205 210
216 221 210 203 204 201 201 201 201 206 205 206 210 212 211 208 208 210 211 213 212 211 213 212 213 212 210 211 200 193 218 223 221 217 102 194 201 202 202 201 207 207 194 197 214 224 233 234 225 226 244 270 268 229 177 188 224 221 215 70 87 85 111 106 112 136 124 136 144 152 143 128 170 169 210 224 208 204 213 203 187 174 176 191 205 208 206 210
209 218 213 199 200 202 202 201 201 204 204 203 208 211 211 206 205 208 209 211 212 212 212 212 212 208 206 206 191 199 231 228 224 217 202 173 187 194 198 195 199 206 197 200 227 233 223 226 218 221 249 274 283 256 185 187 270 217 146 104 99 86 110 114 103 138 130 137 158 170 135 118 174 171 236 217 198 201 204 199 195 190 192 197 205 210 209 211
206 210 213 205 201 202 201 200 200 201 201 201 203 208 210 206 202 207 209 210 211 212 211 211 210 206 207 203 188 204 233 223 217 215 213 197 171 192 201 200 200 206 208 215 232 232 222 223 216 225 248 268 280 274 218 202 288 131 133 110 115 109 106 122 111 143 149 144 171 163 96 112 133 181 225 192 188 201 201 201 207 208 211 212 211 210 210 212
206 204 208 207 203 200 199 200 198 197 197 198 199 204 208 206 203 205 207 207 209 210 209 207 207 205 201 198 198 216 231 216 208 212 216 216 211 217 211 210 206 199 210 223 228 226 220 220 226 237 237 261 272 250 239 218 216 152 159 138 140 147 145 165 139 156 173 169 173 110 78 168 175 219 221 192 191 200 198 202 210 215 214 214 216 213 215 213
207 201 202 205 203 199 199 198 194 195 196 195 194 198 204 206 204 203 202 200 201 203 202 201 202 198 189 189 206 214 220 209 203 213 221 227 230 231 227 219 209 202 209 215 217 219 215 211 225 236 235 256 275 258 278 216 195 186 205 219 154 174 217 175 149 154 158 163 178 139 236 214 213 224 218 199 200 196 191 196 203 214 210 208 214 214 218 216
205 200 200 203 201 196 196 193 190 192 193 191 191 195 200 202 202 202 200 197 195 195 196 194 188 182 180 188 204 197 192 193 197 206 216 225 225 220 220 212 202 202 204 202 207 219 212 206 218 234 238 246 268 284 315 197 203 184 209 246 184 176 194 169 154 159 155 165 183 158 244 240 247 218 200 192 198 190 185 190 197 211 206 204 211 214 220 222
203 198 198 202 199 194 191 188 186 189 189 187 189 193 195 195 196 197 199 199 196 191 189 188 177 166 176 192 196 190 186 189 196 199 203 213 210 206 206 197 191 195 197 195 201 215 210 207 220 237 241 231 243 269 175 175 236 197 198 224 211 194 166 164 167 168 161 162 187 172 233 249 283 131 167 181 189 189 191 195 201 208 207 208 212 216 221 225
200 195 196 200 198 192 187 184 183 186 186 184 185 189 192 193 193 193 194 191 188 186 182 180 171 160 177 193 187 193 196 202 204 194 193 203 201 199 199 189 185 189 193 196 200 208 208 207 220 236 233 210 214 243 216 186 212 226 211 192 201 202 171 166 234 201 158 137 191 214 242 238 200 150 170 181 186 195 201 206 211 209 208 212 217 223 225 226
198 194 195 197 196 191 184 179 181 184 184 181 182 184 186 187 188 189 189 180 177 180 178 176 169 163 212 200 186 192 197 206 210 200 193 196 194 196 192 179 178 186 189 195 201 202 200 200 212 229 223 202 190 208 224 196 200 228 211 216 214 194 176 163 277 251 178 155 210 219 240 253 217 169 180 191 192 199 206 212 218 214 208 212 217 224 227 227
195 192 193 193 192 188 181 177 180 182 181 179 178 177 175 175 177 179 177 165 156 156 164 180 175 178 235 204 193 192 193 200 206 205 198 190 192 192 183 177 176 177 173 179 192 187 187 194 197 214 212 209 201 200 215 196 185 185 181 239 227 195 204 185 164 191 176 197 233 192 223 251 243 190 181 194 194 196 208 215 217 216 214 215 217 219 225 228
191 190 191 189 187 184 179 176 178 180 178 174 169 166 162 158 158 168 169 158 149 146 166 186 183 194 265 197 189 182 191 196 197 198 196 189 185 179 172 177 175 164 158 161 177 179 179 179 184 212 209 202 212 210 221 219 196 185 179 206 214 194 215 185 110 186 166 163 224 203 219 241 247 237 200 195 196 197 206 213 216 218 219 218 220 220 224 227
188 188 188 185 185 181 175 174 177 180 176 169 162 156 150 146 141 158 170 170 168 167 200 189 184 175 45 170 171 159 172 186 187 184 190 190 177 168 166 167 166 162 161 156 164 182 180 173 194 209 203 194 210 224 233 245 267 222 177 189 216 192 197 127 89 190 174 154 216 226 238 249 248 248 230 204 197 198 200 204 213 218 221 219 220 223 227 231
187 187 185 182 182 179 174 175 178 180 178 172 164 159 158 156 149 173 174 182 184 181 246 192 183 172 93 164 170 165 159 165 183 180 182 185 170 162 168 163 161 171 177 153 136 166 179 201 210 203 213 201 200 221 241 252 309 307 180 176 217 202 173 57 84 177 178 129 222 219 233 252 247 247 252 221 197 198 200 202 213 219 222 223 223 227 231 234
185 184 183 180 179 178 174 176 179 180 178 173 168 168 171 164 163 186 171 167 194 199 264 190 181 170 147 169 171 169 159 151 176 181 176 173 167 165 170 169 169 176 175 155 132 141 188 225 211 199 219 217 198 210 231 249 301 315 308 164 220 198 122 64 63 141 155 146 251 227 227 252 254 247 249 240 232 221 208 210 221 224 224 224 224 228 230 228
183 182 180 179 178 177 174 175 177 176 176 176 173 172 175 173 192 191 165 135 179 200 220 181 177 150 145 165 166 161 158 155 166 178 175 169 170 178 174 173 181 171 175 167 154 167 189 220 220 209 206 193 192 196 196 227 255 283 297 302 234 181 132 144 187 136 159 198 66 360 308 269 271 267 253 239 240 239 227 224 228 229 230 229 227 227 228 224
178 177 177 177 176 175 174 174 173 175 179 181 180 172 173 183 193 166 153 116 151 175 176 174 173 161 152 159 167 165 164 165 169 176 175 170 171 180 177 176 178 169 180 175 167 182 183 198 226 213 191 175 159 179 176 185 226 248 234 246 276 203 126 98 143 142 37 321 115 33 325 286 240 235 251 238 232 234 232 228 225 226 229 230 227 224 225 224
174 173 173 173 173 173 172 171 173 179 180 181 184 172 164 173 163 153 143 99 146 147 160 171 175 187 175 160 168 170 160 163 172 176 175 172 171 171 178 183 180 172 180 176 171 186 193 204 196 178 182 183 174 186 188 177 202 252 220 211 296 19 105 111 137 143 85 285 222 117 325 285 236 216 236 228 217 224 220 215 214 218 221 221 222 221 221 220
172 171 170 170 170 170 168 171 177 179 176 180 183 168 159 164 157 152 141 98 170 155 156 174 177 188 187 170 164 158 146 163 174 177 176 174 174 168 175 182 179 180 176 173 178 180 168 119 143 155 164 173 178 206 200 172 185 237 241 223 151 89 103 131 151 150 136 225 257 120 172 266 300 266 252 210 192 217 211 209 216 218 220 221 225 226 225 225
171 170 169 170 170 170 171 174 178 177 179 184 179 161 162 167 162 160 146 95 196 159 152 172 174 183 185 171 164 153 142 165 161 176 178 177 179 178 182 177 135 184 168 151 185 189 108 108 105 139 142 153 176 211 200 168 176 218 292 309 153 128 130 151 151 169 187 123 5 352 168 270 299 284 289 166 166 213 214 223 233 227 227 227 230 232 232 234
171 171 171 172 174 175 176 177 176 178 184 182 172 165 169 171 172 171 153 166 169 142 151 168 165 177 173 165 169 160 129 157 151 178 182 180 183 184 208 188 151 136 141 146 183 239 90 154 168 148 139 163 178 201 199 168 170 235 273 9 103 141 148 153 151 181 114 63 316 264 174 274 272 250 277 128 173 231 226 222 229 224 222 220 222 227 230 233
172 173 173 174 174 175 180 180 176 177 181 176 172 175 175 174 174 169 190 185 145 126 155 156 152 164 160 162 175 168 132 156 144 165 177 181 182 182 225 185 157 102 53 94 153 295 14 165 167 150 152 173 156 37 335 174 172 207 182 61 61 57 77 121 160 164 101 64 238 232 185 210 281 255 238 212 212 234 234 232 218 204 201 200 206 214 222 229
172 173 173 173 171 173 178 177 175 175 175 175 179 179 174 173 165 155 202 189 135 142 153 149 154 160 156 158 177 173 145 131 113 144 166 179 179 183 174 161 150 118 65 52 86 108 348 101 75 101 146 145 124 72 15 102 134 146 142 81 64 38 44 46 51 116 106 250 235 225 191 188 274 261 200 188 228 225 226 240 175 160 173 184 200 213 222 232
172 173 173 173 172 172 172 170 173 174 172 176 181 177 168 166 178 182 179 148 125 144 145 146 153 157 163 163 165 172 152 96 133 148 159 173 171 179 164 151 129 101 91 59 72 52 53 81 64 64 120 136 119 78 22 47 113 120 127 113 80 17 38 29 354 80 154 241 256 301 305 166 228 254 220 212 229 185 159 210 174 153 161 182 203 220 231 237
171 173 173 173 171 170 169 170 174 172 172 177 177 171 162 152 203 213 154 143 153 171 171 164 158 161 170 165 154 165 149 116 156 161 157 163 169 182 182 174 149 133 167 155 110 66 80 74 98 86 193 196 147 96 42 10 4 103 141 132 116 75 82 76 243 170 214 238 255 304 359 244 232 251 261 259 247 198 174 169 173 167 164 179 204 225 240 243
171 172 171 172 170 167 170 170 169 170 173 174 169 167 167 167 191 195 161 166 169 159 164 162 158 159 162 161 158 162 145 132 167 168 159 164 171 187 200 196 177 174 177 153 133 127 113 345 198 118 271 225 191 137 138 212 229 187 168 145 145 153 134 198 204 192 227 254 287 278 301 272 267 268 247 246 252 227 183 155 153 160 166 179 203 226 243 237
169 169 169 171 169 166 170 167 165 170 170 163 161 170 185 181 190 185 170 181 154 145 151 152 150 153 162 166 157 157 145 133 165 163 158 170 176 192 207 201 191 185 128 140 159 170 174 248 206 158 169 195 192 176 159 157 172 198 185 146 163 177 163 186 185 185 207 235 324 300 250 197 214 257 234 222 218 159 150 152 151 156 169 184 207 222 229 221
167 166 166 167 166 164 167 167 168 171 165 158 161 185 189 184 188 180 168 157 146 145 145 147 147 151 167 165 148 163 164 141 168 167 166 183 185 189 195 195 196 188 146 157 183 173 178 216 261 313 334 171 176 246 109 122 150 223 176 131 192 205 146 140 176 176 156 106 320 235 247 220 206 256 246 157 123 137 149 160 161 164 175 185 199 203 204 209
163 163 165 165 166 165 165 168 172 171 164 161 166 191 197 199 183 173 162 145 151 148 139 145 151 154 167 162 154 171 162 134 169 173 178 192 196 194 193 191 192 191 173 161 155 151 170 222 323 344 5 48 108 346 18 102 169 203 145 167 213 176 114 120 233 48 107 169 240 185 252 275 274 284 256 164 153 178 170 177 181 179 179 180 186 186 189 197
160 162 165 167 168 168 167 170 173 171 168 171 187 189 198 218 187 159 143 134 141 143 140 149 163 165 168 167 169 172 150 135 169 176 174 185 202 200 196 196 190 193 192 161 145 191 150 108 332 354 45 6 13 44 44 30 66 114 157 201 204 63 77 121 197 8 98 235 242 174 215 251 234 274 291 143 183 218 203 201 195 186 184 183 182 184 191 194
159 161 164 169 172 170 170 172 172 171 173 189 206 197 191 202 220 145 140 137 141 146 148 154 165 177 176 166 166 168 156 152 173 179 171 178 207 191 185 197 192 193 198 162 118 197 137 102 328 343 12 287 5 76 117 6 25 111 183 212 120 140 260 157 183 195 167 217 262 228 223 229 203 217 253 185 212 220 210 206 200 192 191 187 183 184 189 189
156 158 164 174 176 171 170 171 169 170 178 203 205 203 171 140 291 151 146 141 143 152 158 158 157 173 178 164 157 163 166 167 167 174 181 184 210 188 179 184 182 191 198 179 132 193 136 111 220 322 326 217 40 154 186 199 5 45 5 17 70 162 183 172 199 204 166 198 257 261 233 242 233 210 204 211 211 202 199 204 205 200 196 192 188 185 186 188
155 153 167 181 180 171 167 164 164 173 193 202 194 187 129 128 268 158 148 147 149 156 164 165 161 166 169 164 161 164 172 169 163 180 199 175 181 198 186 179 168 181 189 175 140 164 100 102 165 305 317 211 167 227 194 177 176 163 94 135 160 170 124 95 259 217 158 182 234 252 254 260 250 215 211 217 210 197 195 198 204 202 199 197 193 188 188 188
156 142 162 182 183 168 159 157 165 186 202 203 194 173 137 138 148 149 144 148 148 81 143 163 166 166 162 163 166 164 167 169 169 184 199 177 181 212 195 179 162 162 171 168 166 164 112 127 137 139 223 197 206 297 40 146 168 173 185 185 185 180 137 122 255 226 180 187 202 206 252 270 263 259 233 208 179 177 187 191 201 203 199 198 195 193 194 192
157 126 160 178 178 162 155 156 187 193 198 200 177 130 144 143 143 152 130 134 131 57 108 157 167 167 163 166 166 162 164 171 179 185 197 195 191 195 192 177 162 158 160 162 176 160 105 106 110 126 178 176 214 262 98 128 136 139 231 206 178 179 167 176 212 213 198 211 173 155 266 272 263 303 16 24 52 75 141 184 202 202 198 197 195 195 197 195
136 114 151 170 166 160 160 166 187 192 211 174 133 103 146 147 136 153 146 130 132 98 108 144 164 167 170 170 161 162 168 172 185 190 192 191 186 189 187 172 159 158 159 147 156 151 114 106 104 94 39 9 322 271 103 133 137 167 237 213 182 197 195 187 195 173 176 198 162 167 252 264 274 327 9 339 336 358 203 178 188 194 193 192 193 195 195 193
117 115 140 162 162 163 173 185 180 190 197 164 139 115 149 139 132 154 163 160 150 151 134 130 158 158 160 164 155 163 172 172 191 196 185 172 175 302 179 166 159 160 171 170 168 166 164 151 124 117 84 8 343 299 266 244 203 199 236 206 189 197 143 131 174 101 226 212 181 182 237 250 274 333 1 312 304 284 257 221 174 180 186 190 193 194 194 192
116 114 137 159 167 176 197 206 187 188 181 166 156 157 143 89 106 153 154 146 118 132 130 116 141 132 117 135 132 159 178 176 178 184 167 146 156 350 164 167 167 167 170 163 158 158 169 179 156 158 178 191 205 219 210 185 176 188 2 181 192 183 150 152 194 205 240 226 189 187 241 254 271 326 346 283 270 266 251 219 196 189 189 195 195 194 194 193
126 116 135 160 180 205 236 273 249 194 179 172 164 164 156 133 90 128 140 142 87 111 109 98 131 121 121 149 138 164 187 176 99 158 161 126 121 351 18 163 166 155 141 150 152 147 144 214 186 190 206 208 209 206 143 117 136 186 197 200 203 198 191 186 176 196 219 232 221 218 234 256 266 261 241 250 239 238 238 211 201 198 196 200 199 196 196 195
135 141 149 162 187 212 232 249 243 208 180 178 172 167 162 147 131 123 110 144 178 138 91 55 145 146 159 164 155 169 180 154 103 153 160 126 99 62 55 77 111 122 125 148 155 141 103 213 198 203 221 224 208 174 137 135 164 190 195 205 210 203 196 196 207 215 210 218 242 237 224 243 257 247 217 226 236 237 231 214 211 207 201 203 202 198 197 196
121 145 165 168 173 203 208 205 207 198 175 176 172 160 162 153 153 165 124 30 176 169 118 105 180 180 171 166 161 161 163 152 144 163 152 128 118 104 70 34 51 111 113 137 158 136 111 203 205 203 224 233 208 179 166 168 190 199 199 208 210 205 198 198 213 222 215 213 235 237 227 233 249 250 226 217 216 218 228 226 221 213 205 204 202 198 197 198
90 101 152 166 169 190 170 160 176 193 175 173 172 166 169 169 168 166 122 104 169 202 184 169 189 189 173 169 162 155 166 171 173 173 138 125 136 126 110 57 62 156 126 117 158 143 117 197 200 186 221 242 218 195 185 185 203 213 212 215 212 206 203 202 213 223 221 222 231 237 238 240 247 247 236 231 224 223 226 219 207 209 211 207 201 198 198 201
100 85 141 149 88 136 150 142 159 186 175 174 182 179 174 178 176 162 138 162 173 190 198 184 183 179 172 174 172 176 189 182 171 169 148 132 152 161 161 165 149 157 157 131 153 183 167 194 176 155 210 249 223 214 206 191 200 215 220 225 218 208 205 207 216 223 224 229 237 244 253 258 253 244 250 254 231 209 198 191 198 211 212 204 199 200 203 206
137 96 143 147 80 133 159 154 167 179 174 182 189 179 174 182 175 156 133 178 171 179 190 179 169 169 169 179 188 196 191 179 171 172 163 156 169 175 171 161 146 144 171 164 152 160 176 194 151 137 192 238 214 210 213 194 199 235 243 233 219 209 206 207 213 217 215 221 236 246 252 254 250 246 253 249 206 181 186 195 203 208 206 205 206 208 210 212
143 122 145 150 86 75 169 158 171 186 186 189 187 174 175 180 167 153 149 48 58 166 181 171 157 157 170 189 200 191 161 145 149 166 164 157 156 152 144 152 152 151 161 158 150 162 162 165 149 147 194 243 217 190 186 126 82 255 239 220 213 215 214 211 215 219 213 209 218 230 237 242 243 241 248 241 191 186 203 204 205 210 210 213 217 219 222 223